作者theworld666 (朱朱)
看板Baseball
標題[LIVE] 世界十二強 七局下 加拿大 7:5 台灣
時間Thu Nov 12 21:19:07 2015
P:Rakkar NP:6
忘了上一局 LUCKY7 超前啦!!!!
王柏融
130 B
140 B
139 F
139 S
132 K
1OUT
張志豪
131 B
140 B
139 B
140 BB
一壘有人 1OUT
P:Rakkar → Albers
2W11L 5.70ERA 1.625WHIP AAA TOR
2.2IP 1H(1HR) 1ER 2BB MLB TOR
郭嚴文
139 S
141 S
106 二壘滾地 二壘out 一壘safe
一壘有人 2OUT
林智勝
XXX F
138 S
142 K...
--
※ 發信站: 批踢踢實業坊(ptt.cc), 來自: 118.160.25.234
※ 文章網址: https://webptt.com/m.aspx?n=bbs/Baseball/M.1447334354.A.115.html
※ 編輯: theworld666 (118.160.25.234), 11/12/2015 21:19:58
1F:推 y15973: Ya 11/12 21:19
2F:→ phsu02: 幹 陳冠宇比黑豹旗投手還爛 11/12 21:19
3F:→ HiHiCano: 還在崩潰陳冠宇啊 你有聽過蔣屁屁嗎? 11/12 21:19
4F:推 CapriceChang: 逆轉 11/12 21:19
5F:推 tsenyao: 大王再尻一發 11/12 21:19
6F:→ liyuoh: 大王再來一發 11/12 21:19
7F:→ just8811: 超級喜歡!!!!!!!!!!!! 11/12 21:19
8F:推 Klan: 上壘啊 11/12 21:19
9F:→ Romeo5566: 蔣智賢 打擊E 速度F 守備E 運氣F 11/12 21:19
10F:推 isotropic: 大王靠你了 11/12 21:19
11F:→ schmi: 選爪爪隊的到底幹嘛啦...廢到爆..在國內讓爪迷自慰就好了 11/12 21:19
12F:推 ACGfun: 抓抓有毒 11/12 21:19
13F:→ just8811: 超級喜歡大王 11/12 21:19
14F:推 cpujerry: 拜託再來一個大局吧 11/12 21:19
15F:推 lovedream927: hhhhhhhhhh 11/12 21:19
16F:推 tamsky: 蔣屁屁可以吃屎嗎??拜託,一口就好,大口 11/12 21:19
17F:推 sakuryo: 大王再來一發 11/12 21:19
18F:→ oh123oh: 求求把蔣換掉XXXXXXXXXXXXXXXXXXXXXXXXXXXXXXXXXXXXXXXXX 11/12 21:19
19F:→ ashin0226: 輸了 11/12 21:19
20F:→ duncan5208: 米糕打線加油 發揮一下 11/12 21:19
21F:推 d38654: 大王再來一支! 11/12 21:19
22F:→ peter5214: 靠 這棒次 大師兄又要當首位打者了... 11/12 21:19
23F:推 linyi781227: 大王來一發吧!!! 11/12 21:19
24F:推 steven211037: 沒被制裁氣還在 11/12 21:19
25F:噓 commonness: 乾脆 以後三壘有人一率強迫取分 好了 11/12 21:19
26F:→ ncb125: 這場打完可以臨時換總教練嗎? 11/12 21:19
27F:推 jenchieh5: 這局可以期待一下 離蔣還有八個棒次XD 11/12 21:19
28F:噓 biblecross: 崩潰~~~~~~~~~~~~~~~~~~ 11/12 21:19
29F:→ chense: R: [討論] 求明天讓蔣3B 火哥LF先發 好嗎?? 11/12 21:19
30F:→ hbl420ii: 鍋貼解凍好了 11/12 21:19
31F:推 riniu0728: 加油啊啊啊啊啊啊啊啊啊啊啊 11/12 21:19
32F:→ success0409: 兩隻米糕球員 有機會 11/12 21:19
33F:→ ducatio: 拜託這棒次很好 11/12 21:19
34F:→ phsu02: 幹 陳冠宇比黑豹旗投手還爛 11/12 21:19
35F:→ w223357: 熟悉的味道 11/12 21:19
36F:推 gn00499901: 逆轉Lucky 7來了,臺灣隊一局打7分! 11/12 21:19
37F:→ garyoneptt: 大王和超級喜歡一人一支紅不讓啦 11/12 21:19
38F:→ s90523: 加油打線 11/12 21:19
39F:→ schmi: 硬要在無安打隊裡找人湊人數... 11/12 21:19
40F:推 a76126: 大王再尻一發 我一定噴爆教練團 11/12 21:19
41F:→ BURSTshock: 我要吃大局啦 11/12 21:19
42F:→ love0120xxx: 大王炸一隻 拜託 11/12 21:19
43F:推 seclovpla: 加油!!!!!!! 11/12 21:19
44F:噓 b2060027830: 陳冠宇 郭泰源 蔣屁屁 11/12 21:19
45F:→ santaclub: 有沒有國外可以看的連結阿。...y 11/12 21:20
46F:推 san70168: ===========================中華台北掰掰 11/12 21:20
47F:→ zaknafein: 米糕打線 2/3 可以期待 11/12 21:20
48F:→ IRPT001: 荷要call了 11/12 21:20
49F:→ mike780503: 全:有你真好 11/12 21:20
50F:→ hank61910: 大王再來吧 11/12 21:20
51F:→ vacamin: 大王如果H你蔣會更黑 11/12 21:20
52F:推 usoppp: 蔣收錢? 11/12 21:20
53F:→ just8811: ↗↗↗↗↗↗↗↗↗↗↗↗↗↗↗↗↗↗↗↗↗↗↗↗↗ 11/12 21:20
※ 編輯: theworld666 (118.160.25.234), 11/12/2015 21:21:45
54F:→ cover543: 我秀驚險下庄 後面有個黑到發光的 11/12 21:20
55F:→ phsu02: 幹 陳冠宇比黑豹旗投手還爛 11/12 21:20
56F:推 shao729: 想到大王原本有滿壘機會可以的說.......... 11/12 21:20
57F:推 kouhei: 大王加油!!!!!!! 11/12 21:20
58F:推 trylin: 912三上三下 大師兄又要打陽春 11/12 21:20
59F:推 brainerd: 已經十幾個打數了 教練還看不出屁屁狀況有多差嗎 11/12 21:20
60F:推 k102077: 拜託後天米糕全部排一起 11/12 21:20
61F:推 wbesjdje: Lucky7 11/12 21:20
62F:→ maxian30201: 拜託 再一隻 11/12 21:20
63F:→ blue1204: 打國際賽 旅外全黑掉XDDDD 11/12 21:20
64F:→ cover543: 板凳上有yoh 全壘打王 能打能守的轟炸機 當然選擇不換啊 11/12 21:20
65F:推 ivan609: 加油啊!!!!!!!!!!!!! 兩分 OK的!! 11/12 21:20
66F:→ hank61910: 大王道歉吧 11/12 21:20
67F:→ sunluna: 逆轉勝!! 11/12 21:20
68F:推 cpcpao: 都變化球 11/12 21:20
69F:噓 ofpurity: 引退名單:陳冠宇 蔣屁股 11/12 21:20
70F:推 eric0925a: 大王尻一發 讓你蔣黑死 11/12 21:20
71F:推 vincentliu: 反攻 11/12 21:20
72F:噓 akumakei: 大王??????????????????中職水準而已 11/12 21:20
73F:推 diditomtom: 大王再ㄧ支啦 11/12 21:20
74F:噓 ycaa: 5:7 Fianl 11/12 21:20
75F:推 aaaaaa12317: 幹林老師 11/12 21:20
76F:→ WenliYang: HR!!!!!!!!!!!!! 11/12 21:20
77F:推 loverxa: 拜託炸一隻沖沖霉氣 11/12 21:20
78F:推 brothers5023: 志豪幫爪道歉一下 蔣就好好休息 11/12 21:20
79F:推 eno03: 上壘 一轟 再追兩分 11/12 21:20
80F:→ pigpig861: 繼呂震儒之後 香腸我也不酸了 11/12 21:20
81F:→ william7713: 感覺許基宏會比蔣智賢有期待 11/12 21:20
82F:推 MirageAngel: 3振KKKKKKKKKKKKKKKKKK爆CND! 11/12 21:20
83F:推 sean0126: LM打線不會放棄的! 11/12 21:20
84F:→ Romeo5566: 這個投手 幾乎都壞球 11/12 21:20
85F:推 sandwichchen: 反攻反攻!!! 11/12 21:20
86F:推 anleyou: 在一發!!!!!!!!!!!!!!!!!!!!!!!!!!!!!!! 11/12 21:20
87F:推 HumanBenzene: 140應該滿合中華隊味口 11/12 21:20
88F:推 sunnmm: 再來個大局吧! 11/12 21:20
89F:推 team0801: 加油 11/12 21:20
90F:→ vans726: 主坦上位 11/12 21:20
91F:推 yyhhzz: 大王再來一發吧 11/12 21:20
92F:推 gameloser: 真 第四棒 11/12 21:20
93F:推 q052840616: 荷蘭拿到同花大順啦 11/12 21:20
94F:推 addict615: ↗↗↗↗↗↗↗↗↗↗↗↗↗↗↗↗↗↗↗↗↗↗↗↗↗ 11/12 21:20
95F:推 agjay: 加油啊!!!! 11/12 21:20
96F:推 justting: 加油,反攻開始 11/12 21:20
97F:推 BlueMoonss: LM整隊來可能都比現在好 11/12 21:20
98F:推 BDACK: 壞球率滿高的 剛剛一直揮= = 11/12 21:20
99F:推 yniori: 蔣屁站著被三振都比較有貢獻 11/12 21:20
100F:→ straight0711: 終於知道eda為什麼不選了 11/12 21:20
101F:→ ncncaska: 不要這樣,志豪跟飛刀還不賴的 11/12 21:20
102F:推 F93935: 拜託別看到e全跟蔣屁屁了 毫無希望 11/12 21:20
103F:推 nht: 大王加油!!!!!!!! 11/12 21:20
104F:→ kara21: 再一隻啦 幹 11/12 21:20
105F:噓 xversaille: R: [討論] 求明天讓蔣3B 火哥LF先發 好嗎?? 11/12 21:20
106F:推 AceCash: 噴吧噴把~~~~ 11/12 21:20
107F:推 wayne971: \逆轉/\逆轉/\逆轉/\逆轉/\逆轉/ 11/12 21:20
108F:→ ofpurity: 陳冠宇比 1a投手還不如 爛死了 11/12 21:20
109F:推 blackspace: 蔣智賢.......................怎麼會讓他來打 11/12 21:20
110F:推 bluesophia: 大王加油 11/12 21:20
111F:推 deathnight41: 轟轟轟 11/12 21:21
112F:→ amethystboy: 界外 好險 11/12 21:21
113F:→ riniu0728: 加油 11/12 21:21
114F:噓 HiHiCano: 還在崩潰陳冠宇啊 你有聽過蔣屁屁嗎? 11/12 21:21
115F:推 Cervelo1995: 我現在出發代打來的及嗎 11/12 21:21
116F:→ agjay: ↗↗↗↗↗↗↗↗↗↗↗↗↗↗↗↗↗↗↗↗↗↗↗ 11/12 21:21
117F:推 cucu1126: 這隻剛剛就投不太進去還一直去打...... 11/12 21:21
118F:→ headcase: 大王再尻一發吧 11/12 21:21
119F:推 jeyang: 大王!!!! 11/12 21:21
120F:→ seclovpla: 加油!!!!!! 11/12 21:21
121F:→ apple7146: ↗↗↗↗↗↗↗↗↗↗↗↗↗↗↗↗↗↗↗↗↗↗↗↗↗ 11/12 21:21
122F:推 xsexyx: 拜託尻出去! 11/12 21:21
123F:→ just8811: ↗↗↗↗↗↗↗↗↗↗↗↗↗↗↗↗↗↗↗↗↗↗↗↗↗ 11/12 21:21
124F:→ MirageAngel: ↗↗↗↗↗↗↗↗↗↗↗↗↗↗↗↗↗↗↗↗↗↗↗↗! 11/12 21:21
125F:→ schmi: 選爪爪隊的到底幹嘛啦...廢到爆..在國內讓爪迷自慰就好了 11/12 21:21
126F:推 shamangel: 追分吧!!!!!!!!!!!!!!!!!!!!!!!!!!!!!!!!!!!!!!! 11/12 21:21
127F:推 nunu1102: 大王~大王 11/12 21:21
128F:噓 oh123oh: 超爛的啦 蔣XXXXXXXXXXXXXXXXXXXXXXXXXXXXXXXXXXXXXXXXXX 11/12 21:21
129F:推 MrQT: ==================加拿大有本事 就不要靠蔣好嗎=========== 11/12 21:21
130F:推 ghostl40809: 加油啊各位 11/12 21:21
131F:→ WenliYang: HR!!!!!!!!!!!!! 11/12 21:21
132F:推 blackhearted: 真的壞球一堆,剛蔣屁那球也爛死了 11/12 21:21
133F:推 Tyrael: 有一個好消息 還要再打八個人才會輪到蔣智賢 11/12 21:21
134F:→ deathnight41: K 11/12 21:21
135F:推 powderzhon: +油啊~~~ 11/12 21:21
136F:→ forfan: 還好義大沒選,不然球迷跑光光了 11/12 21:21
137F:→ straight0711: 第一次打就完全揮不到了 11/12 21:21
138F:推 iverlung: 拜託在尻一隻 11/12 21:21
139F:推 LauyaD: k 11/12 21:21
140F:推 DarkKnight: K 11/12 21:21
141F:推 yanki826: KKK 11/12 21:21
142F:→ HiHiCano: KKKKKKKKKKK 11/12 21:21
143F:推 coffeeblack: 大王加油 11/12 21:21
144F:→ san70168: =============窮到只剩全壘打了 我難過.......... 11/12 21:21
145F:→ yyhhzz: 這投手真威猛 11/12 21:21
146F:推 stoo5514: K 11/12 21:21
147F:→ freedom168: 大家冷靜點 11/12 21:21
※ 編輯: theworld666 (118.160.25.234), 11/12/2015 21:23:16
148F:推 v2ssili: 這個變速球好威喔!! 11/12 21:21
149F:推 dodotank: 大家都心急了 11/12 21:21
150F:推 sniperlin: 這種投手就中華隊最不會打得 球路詭異的變化球系投手 11/12 21:21
151F:→ ivan609: 穩住啊 氣勢要拉回來!! 11/12 21:21
152F:→ psvita: 想拚大隻的 11/12 21:21
153F:→ WenliYang: HR!!!!!!!!!!!!! 11/12 21:21
154F:推 ccfred: 這投手真的不好打 11/12 21:21
155F:→ joenot: 看完蔣 我覺得一拳白了 11/12 21:21
156F:推 tvb: 變速球真猛 11/12 21:21
157F:→ agjay: ↗↗↗↗↗↗↗↗↗↗↗↗↗↗↗↗↗↗↗↗↗↗↗ 11/12 21:21
158F:推 godmanntut: 好威的變速 11/12 21:21
159F:推 notea: 氣都被屁蔣滅了 11/12 21:21
160F:推 dl92114: 投手有夠舒服 11/12 21:22
161F:推 Greatgenius: 這是利多消息 還有八人 11/12 21:22
162F:→ nunu1102: 可惜~大王!! 11/12 21:22
163F:推 hank61910: 投手好猛 11/12 21:22
164F:→ DarkKnight: 人家不是1A投手而已..... 11/12 21:22
165F:推 s83106: 嗯… 11/12 21:22
166F:推 knml: 唉…沒氣了…被蔣屁燒光 11/12 21:22
167F:推 egg43: 派全智賢來打還比較好.......至少碰不到球才死一個 11/12 21:22
168F:推 jimmy885: 他這顆變速真的極品 11/12 21:22
169F:推 hbl420ii: 1A>>>>>>>>>>>>>>>中華隊 11/12 21:22
170F:推 Crazyfire: 氣 都被壓下去了 11/12 21:22
171F:推 jay1943webbe: 這隻很難打啊.....嗚嗚 11/12 21:22
172F:推 Augustus7689: 這投手舒服 11/12 21:22
173F:推 littlethree: 這投手有很強嗎? 11/12 21:22
174F:推 gn00152097: 好吧 這投手真的難打 11/12 21:22
175F:推 lon0623: 為什麼會讓張志豪先發阿? 11/12 21:22
176F:→ seclovpla: 有的一日球迷是怎樣 11/12 21:22
177F:推 snap007: 後面越來越難打了 11/12 21:22
178F:推 malasea: 這隻變速球幅度蠻大的 11/12 21:22
179F:推 SPEEDPOP: 完全被變化球騙假的 11/12 21:22
180F:推 isotropic: 這球投得太好了 11/12 21:22
181F:推 qqstory: 這投手變化球不錯 2K 1DP 11/12 21:22
182F:推 LewisRong: 這投手真猛 11/12 21:22
183F:推 IRPT001: 好啦 結果一樣 11/12 21:22
184F:推 gilonglee: 變速球威力真好 11/12 21:22
185F:→ xsexyx: 蔣比你全更讓人生氣 11/12 21:22
186F:→ schmi: 開心的是 明年又可以看到廢物蔣在爪爪隊~!! 11/12 21:22
187F:→ HiHiCano: 今天應該就這樣了 拚一點能吃鍋貼 11/12 21:22
188F:推 maxian30201: 這投手不好打啊 11/12 21:22
189F:推 ya7814: 棒子離球超遠QQ 11/12 21:22
190F:推 lovebuddy: 投手感覺很威 加油啊 11/12 21:22
191F:推 nepenthes7: 這真的是1a投手嗎 囧 11/12 21:22
192F:推 Puye: 這球投得不錯 11/12 21:22
193F:推 henryeech: 志豪來幫我爪要點面子吧 11/12 21:22
194F:→ westlml: 完全被這個投手壓制住了~上來兩K一DP 11/12 21:22
195F:推 ncb125: 在一隻三分砲就超前了 先擠壘 11/12 21:22
196F:推 Raymond0710: 投手真強 11/12 21:22
197F:推 d90493: 1A電報中華隊 11/12 21:22
198F:噓 shulado: 這投手的壞球這麼有魔力? 11/12 21:22
199F:推 Saza: 2K 1 DP 這頭真猛 11/12 21:22
200F:→ WenliYang: 滿壘無人出局拿零分 氣勢整個逆轉 11/12 21:22
201F:推 yenchihh: 變速球真漂亮 11/12 21:22
202F:推 qsxwdc: 咦 11/12 21:22
203F:→ deathnight41: 好好選球 11/12 21:22
204F:推 steany: 有夠爛的 11/12 21:22
205F:→ yiersan: 不換YOH???? 11/12 21:22
206F:推 Amilous: 這投手目前只有蔣打出去... 11/12 21:22
207F:推 zergtide: 這顆變速有強 11/12 21:22
208F:→ s83106: 看來這投手真的很難打… 11/12 21:22
209F:推 chiamin116: 大王左臉頰痘疤好明顯 11/12 21:22
210F:推 F93935: 蔣到底有什麼實績真有愛一直打國際賽 11/12 21:22
211F:推 eaglelee: 這個加拿大投手真讓人舒服 11/12 21:22
212F:推 chinho14: 變速,幅度很大 11/12 21:22
213F:推 wayne971: 選死他啊 11/12 21:22
214F:推 terrylys: 這投手好舒服喔!! 11/12 21:22
215F:推 Mondesi2006: 不好打 11/12 21:22
216F:推 pigpig861: 偉哉我蔣 士氣全無 11/12 21:22
217F:推 mico409: =============選 球 好 嗎============== 11/12 21:22
218F:推 CCAP: 好好選球 11/12 21:22
219F:→ yanki826: 該還志豪一隻安打 11/12 21:22
220F:→ isotropic: 選球 11/12 21:22
221F:推 q152134: 大家一直揮這顆變速 11/12 21:22
222F:→ ncncaska: 陽賽前腳不舒服 11/12 21:22
223F:推 trylin: 打支安打 讓師兄上來雙響砲好嗎 ? 11/12 21:22
224F:推 jamison763: 打擊不是問題 投手真的不行 11/12 21:22
225F:推 HeroFun: 球路都往下吊 11/12 21:22
226F:→ yyhhzz: 別人換投止血,我們換投放火 11/12 21:22
227F:→ lon0623: 陽岱鋼是NPB好手耶 11/12 21:22
228F:推 scatology: 現在可好了 攻勢的氣勢都斷在蔣那個打席 11/12 21:22
229F:推 eno03: 球全部偏低 11/12 21:22
230F:推 riniu0728: 加油!!!! 11/12 21:22
231F:→ straight0711: 壞球猛揮 好球不揮 11/12 21:22
232F:→ q052840616: 猿文尻一發吧 今天只能期待lamigo全壘打海了 11/12 21:22
233F:推 lovedesigh: 輸了 11/12 21:22
234F:推 kzzoz80: 有辨法得分時不珍惜 等人家換投手 11/12 21:22
235F:→ Roy3567: 加拿大投手令人舒服 11/12 21:22
236F:推 stockking: 張先上壘吧~~等等超級喜歡轟一支! 11/12 21:22
237F:→ d90493: 中華隊有機會贏的 關鍵都烙賽 11/12 21:22
238F:→ Tyrael: 剛剛打爆2A 結果被高階1A收掉... 11/12 21:22
239F:→ kara21: 袁博士不要稱讚對手啦 11/12 21:22
240F:→ freedom168: 蔣不要再來了 拜託 11/12 21:22
241F:→ deathnight41: 選球 11/12 21:22
242F:→ CCAP: 不錯 11/12 21:22
243F:推 koyu: 這隻變化球好猛 11/12 21:22
244F:→ hank61910: 張志豪代表兄弟白一下吧 11/12 21:22
245F:推 gameloser: 趕著下班 11/12 21:23
246F:→ hergan: 亞運不是實績 ? 11/12 21:23
247F:→ zergtide: 0s3b 11/12 21:23
248F:→ chinho14: 志豪,選球 11/12 21:23
249F:→ Augustus7689: 加捕手尾勁不錯 11/12 21:23
250F:→ william7713: 這三場的得點圈打擊率是不是超級杯具...? 11/12 21:23
251F:→ WenliYang: HR!!!!!!!!!!!!! 11/12 21:23
252F:推 jeyang: 選球!! 11/12 21:23
253F:→ deathnight41: BBBB 11/12 21:23
254F:→ Puye: 球都很低 11/12 21:23
255F:推 love0120xxx: 超級喜歡準備炸裂 11/12 21:23
256F:→ ivan609: 選球選球!!!!! 11/12 21:23
257F:→ CCAP: BBBBBBBBBBBBBBBBBBBBBB 11/12 21:23
258F:推 panjiongkai: BBBBBBBB 11/12 21:23
259F:推 doraemon0317: 明明就壞球率很高阿……蔣你到底…… 11/12 21:23
260F:推 sheep2009: BBB 11/12 21:23
261F:推 phsu02: 幹 陳冠宇比黑豹旗投手還爛 11/12 21:23
262F:→ q152134: BBBBBBBBBB 11/12 21:23
263F:推 linyi781227: 選球!!!!!水!!! 11/12 21:23
264F:→ trylin: BB 11/12 21:23
265F:→ mico409: BBBBBBBBBBBBBBBBBBBBB 11/12 21:23
266F:→ stockking: 任務達成 11/12 21:23
267F:→ activ: 張志豪替蔣屁洗白一丁點 11/12 21:23
268F:推 xuptjo: BBBBBBBBBBBBBBBBBBBBBB 11/12 21:23
269F:推 bbbbbb444444: BBBBBBBBBBBBBBB 11/12 21:23
270F:推 pig721: 帥 11/12 21:23
271F:推 lalala888: 保送! 11/12 21:23
272F:推 osakakobe: bbbb 11/12 21:23
273F:推 terfd: 水 11/12 21:23
274F:→ asonge0000: 超級喜歡該轟了!!!!!!!!!!!!!!! 11/12 21:23
275F:推 loveinmars: 好!!! 11/12 21:23
276F:推 grizzly: 志豪猛! 11/12 21:23
277F:推 a51062004: 拜託 反攻阿 11/12 21:23
278F:→ s83106: 蔣亞運打不錯啊 11/12 21:23
279F:→ Amphetame: 優質掌心球,有張99的fu 11/12 21:23
280F:推 tetsu2008: BBBBBBB 11/12 21:23
281F:→ nunu1102: 水啦~~~~ 11/12 21:23
282F:推 sdg235: bbbbbbbbbbbbbbbbbbbbbbbbbbbb 11/12 21:23
283F:推 gamertwo: 選球眼準! 11/12 21:23
284F:→ star0275: 選的好!! 11/12 21:23
285F:推 fish19831012: 爪爪終於有貢獻 只剩下張志豪 11/12 21:23
※ 編輯: theworld666 (118.160.25.234), 11/12/2015 21:24:55
286F:→ hank61910: 志豪不錯 11/12 21:23
287F:推 colorbest: 加油啦!!!!!!!!!!!!!!!!!!!!!!!!!!!!!!!!!!!!!!!!!!!!! 11/12 21:23
288F:推 amethystboy: 很好 選的好 11/12 21:23
289F:→ ivan609: 至豪美賣哦!! 11/12 21:23
290F:推 kerogunpla: 全猿都有打全壘打的能力 11/12 21:23
291F:噓 henryeech: 志豪為何先發?什麼爛問題 11/12 21:23
292F:推 sony1256: 主審都慢半拍 志豪都要看一下 XD 11/12 21:23
293F:→ seclovpla: 耶耶!!!!!! 11/12 21:23
294F:推 qaz2805: 這選球不是來了 11/12 21:23
295F:→ zergtide: BB 志豪選球很好 11/12 21:23
296F:→ isotropic: 超級喜歡!!! 11/12 21:23
297F:推 caku0101: 不怕神一樣的對手,只怕蔣智賢般的隊友! 11/12 21:23
298F:推 Obama19: 士氣被打沉了 11/12 21:23
299F:推 lichun1228: 超級喜歡 你好久沒全壘打了喔 來吧 11/12 21:23
300F:→ wayne971: BBBB 11/12 21:23
301F:→ deathnight41: 今天真的不錯 11/12 21:23
302F:推 s90523: 不用跟大家講啦 已經黑掉的時候說什麼都沒有用 11/12 21:23
303F:→ CCAP: 志豪猛 11/12 21:23
304F:推 t13thbc: 加油阿QAQQ 11/12 21:23
305F:推 annie588670: 加油加油 11/12 21:23
306F:推 adonistao: 水啊 11/12 21:23
307F:推 helloklima: 加油加油!!! 11/12 21:23
308F:推 if2: 加拿大人B嘴 11/12 21:23
309F:推 coon182: 志豪>>>>>>>>>PP 11/12 21:23
310F:→ sniperlin: 超級喜歡差不多要反方向了 11/12 21:23
311F:推 nht: 加油!!!! 11/12 21:23
312F:→ pig721: 稱職的中職陽岱鋼 11/12 21:23
313F:推 dirk00563: 志豪鍋爐! 11/12 21:23
314F:推 oxx: 我猿又要............ 11/12 21:23
315F:→ shulado: 第一棒選球讚 11/12 21:23
316F:→ daniel1344: 我爪清流 11/12 21:23
317F:→ Kreen: 水喔~ 11/12 21:23
318F:推 spaniyavic: 擠壘啊~ 11/12 21:23
319F:推 dream1517: BBB 11/12 21:23
320F:推 white1003: 這投手太舒服了 11/12 21:23
321F:推 bunbunbun: 張志豪100分,上壘就對 11/12 21:23
322F:推 e055739: 志豪帥哦 11/12 21:23
323F:推 gigi2001: 這局在沒得分就吃鍋貼了 11/12 21:23
324F:推 cypoint: 重新開始吧 11/12 21:23
325F:推 amaxman: 超級喜翻靠你惹 11/12 21:23
326F:推 windjoe27: 志豪都比蔣屁強多了 11/12 21:23
327F:→ eno03: 壞球率頗高的投手 捧場一直揮 11/12 21:23
328F:→ yyhhzz: 爪爪只能靠志豪了 11/12 21:23
329F:推 crusaders811: 選的不錯 11/12 21:23
330F:推 apple7146: 偏低阿 11/12 21:23
331F:推 terry66: 有機會的話 高國輝代打神全 不要不信邪 11/12 21:23
332F:推 loverxa: 你爪良心 11/12 21:23
333F:推 premalfear: 呵呵 有給主審尊重 直接走搞不好就CALL好球 11/12 21:23
334F:推 kouhei: 超級喜歡 全壘打 11/12 21:23
335F:→ Augustus7689: 加拿大教練又要拐氣了 11/12 21:23
336F:→ straight0711: 都不要揮搞不好還在打6下 11/12 21:23
337F:→ T60: 追平分上壘了…本日我們得分都是靠___,請低調! 11/12 21:23
338F:噓 headcase: 人家就狀況好啊 不然比先發名單的層級就好 還打什麼比賽 11/12 21:23
339F:推 waterfully: 郭嚴文來一發 11/12 21:23
340F:推 weiyilan: 志豪竟然長出選球 11/12 21:23
341F:推 w40214: 好好選 今天很多人都不選球的.. 11/12 21:23
342F:推 jenchieh5: 左打岱鋼 11/12 21:23
343F:推 knml: 壞球無誤 11/12 21:23
344F:推 jack21023: 兄弟只有我豪醒著 11/12 21:23
345F:→ HeroFun: 換投投投投投投投投投 11/12 21:23
346F:→ coffeeblack: 超級喜歡! 11/12 21:23
347F:推 snap007: 左打陽岱鋼 11/12 21:23
348F:→ stockking: 超級喜歡!!!!!! 11/12 21:23
349F:→ pigpig861: 為爪爪扳回一點顏面 11/12 21:23
350F:推 ilovewang: 全猿都有打全壘打的實力XD 11/12 21:23
351F:噓 ji394up: 又再抗議什麼 11/12 21:23
352F:推 pf775101: XD 11/12 21:23
353F:推 lucy07030703: 選的好 11/12 21:23
354F:→ Puye: 上壘就對了 11/12 21:23
355F:噓 jimgene: 終於又輪回LM打線了 11/12 21:23
356F:→ panjiongkai: 加拿大抗議啥啊 11/12 21:23
357F:推 WINNIENO29: 志豪不錯~ 11/12 21:23
358F:推 ultratimes: 馬的為什麼要給張志豪先發啊 11/12 21:23
359F:→ lon0623: 其實許基宏狀況比蔣好阿 怎麼不選 11/12 21:23
360F:→ trylin: 超級喜歡 大師兄 隨便誰炸一發壓壓驚 11/12 21:23
361F:推 creay222: 上壘啊 擠壘包啊!!!!!!!!!!!!!!!!!!!!!!!!!!!!!!!!!! 11/12 21:23
362F:推 Taidalmc: 謝謝你兄弟 11/12 21:23
363F:推 orgre: 豪>P 11/12 21:23
364F:推 sediments: 志豪>>>>>>>>>>>>>>>>>>>>>>>>>>>>>>>>>>>>>>>>>>>>>屁 11/12 21:23
365F:→ jimmy885: 是太低也太外側啦 11/12 21:23
366F:→ q052840616: 今天得分只能靠全壘打惹 11/12 21:23
367F:→ IRPT001: 這總仔長的好像mib裡的老大 11/12 21:23
368F:→ hank61910: 換了,水哦 11/12 21:23
369F:推 just8811: 選球就對了好嗎 11/12 21:23
370F:→ garyoneptt: 老加你又要幹嘛 11/12 21:23
371F:推 bbo9527: 我爪還好有張志豪還像話 11/12 21:23
372F:噓 adbo1108: 根本沒進壘 11/12 21:23
373F:推 doig: 這投手明明自己投都會投倒自己,一堆人一直揮 11/12 21:23
374F:推 bire: 加拿大教練珍愛抗議 11/12 21:23
375F:→ chinho14: 加拿大,很愛哭 11/12 21:23
376F:→ osakakobe: 要換了 11/12 21:23
377F:推 ACGfun: 很信邪 11/12 21:24
378F:→ henryeech: 換了機會就來了這投手球不好打 11/12 21:24
379F:→ TSbb: U大師:志豪你~~~~~~~~~ 11/12 21:24
380F:→ phsu02: 唯一正常的兄弟 11/12 21:24
381F:→ kouhei: 左投上了 11/12 21:24
382F:→ kzzoz80: 我討厭郭嚴文 11/12 21:24
383F:→ max52001: 爪爪唯一清流 11/12 21:24
384F:→ s90523: 超級喜歡加油~ 11/12 21:24
385F:→ isotropic: 換了 11/12 21:24
386F:→ cpcpao: 左投出現了 11/12 21:24
387F:推 yoyoman001: 水 選球選球 11/12 21:24
388F:→ sdg235: 換左投 11/12 21:24
389F:→ pig721: 換投 加拿大要爆了 11/12 21:24
390F:→ CCAP: 高國輝可以上來了!!!!!!!!!!!!! 11/12 21:24
391F:→ nht: 超級喜歡加油!!!!!!! 11/12 21:24
392F:→ terfd: 你猿陣線來了 11/12 21:24
393F:推 skycloudtw: 謝謝你 志豪~~~~~~~~~~~~~~ 11/12 21:24
394F:→ jeyang: 猿文來吧!!!!! 11/12 21:24
395F:推 chien955401: 換左投了 11/12 21:24
396F:推 aries5420: 換投…危機還是轉機? 11/12 21:24
397F:→ aliceleaves: 超級喜歡!!! 11/12 21:24
398F:推 F93935: 超級喜翻郭嚴文 11/12 21:24
399F:→ terry66: 拜託高國輝代打林益全 11/12 21:24
400F:推 y012478: 準備燒roots啦 11/12 21:24
401F:推 Romeo5566: 放個火 拜託 11/12 21:24
402F:→ ARTORIA: 上一局這樣選贏了 11/12 21:24
403F:推 kukuso: 牛棚海 11/12 21:24
404F:→ ivan609: 又換投了 感覺機會來了!! 11/12 21:24
405F:推 jess730612: 楓葉總教練真得很盡責有任何不爽都會反映 11/12 21:24
406F:推 Mondesi2006: 我文 11/12 21:24
407F:推 qaz12wsx45: 基就受傷阿 11/12 21:24
408F:推 jackie0712: 猿文來一支阿!!! 11/12 21:24
409F:推 yisiang92: 志豪這就對了 多選球 現在急不得 11/12 21:24
410F:推 iankevin: 人家就換的果斷 我們就要掉分才換 11/12 21:24
411F:→ pplilian: 同個投手一個保送一個雙殺 11/12 21:24
412F:→ loveinmars: 超級喜歡轟死他!!!! 11/12 21:24
413F:推 success0409: 超級喜歡郭嚴文~~~~~ 11/12 21:24
414F:推 rick770423: 張志豪今天的表現u大師又有意見? 11/12 21:24
415F:推 g7063068: 整條打線 只能期待猴子了 超級喜歡來一發阿!! 11/12 21:24
416F:推 ITN02: 水喔換了 11/12 21:24
417F:推 majanliu: 追平啦 足球 11/12 21:24
418F:推 jucci9734: 郭嚴文來了,加油!!!!開轟追平吧! 11/12 21:24
419F:推 leo1208: 越換越爛啦 11/12 21:24
420F:→ Mondesi2006: 我文 11/12 21:24
421F:推 wan8088: 可以不要再罵蔣了嗎!我要哭了喔!!!! 11/12 21:24
422F:→ bunbunbun: 壘上有魯蛋了,轟一發吧 11/12 21:24
423F:噓 book8685: 霸的 一u大師還能推文 11/12 21:24
424F:→ gamertwo: 穩住 風向一定會轉回來的! 11/12 21:24
425F:噓 HiHiCano: 左投好球帶更窄 加拿大慘了 11/12 21:24
426F:推 jelly777: 還是要靠大師兄比較穩... 11/12 21:24
427F:→ amethystboy: 來 都來 都可以換上來 11/12 21:24
428F:推 julialin: 超級喜歡郭嚴文 11/12 21:24
429F:→ Taidalmc: 這總教練怎麼好像有喝酒 11/12 21:24
430F:推 smile456: 四棒海預備 11/12 21:24
431F:推 maxian30201: 我還在賭爛剛剛那局 機X 11/12 21:24
432F:推 Alubasong: 趕快打爆他們 11/12 21:24
433F:→ straight0711: 林志祥直接換蔣都好 11/12 21:24
434F:推 Fukudome: Rakkar小熊高階1A救援王 11/12 21:24
435F:推 shao729: 蔣令人失望 志豪表現不錯 11/12 21:24
436F:噓 jeff1008: 屁屁賢可以先自盡了 11/12 21:24
437F:→ lichun1228: 有換有機會 這投手球好會鑽 11/12 21:24
438F:→ knml: 你爪只有志豪強…蔣屁根本沒用 11/12 21:24
439F:推 saint01: 會怕就好 11/12 21:24
440F:→ eno03: 換投時間都不錯 反觀郭 11/12 21:24
441F:推 k268185: ppppppppppppppppp booooooooooooo 11/12 21:24
442F:推 tviii: 打到高志綱那棒 換國輝 11/12 21:24
443F:推 xo1100: 被發現投不進去趕快換 11/12 21:24
444F:→ stockking: 媽阿~~人家教練換投的時機~~總是很對味阿~ 11/12 21:24
445F:推 jay1943webbe: 郭嚴文來個跪地尻 拜託 11/12 21:24
446F:→ kouhei: 使用美女誘惑楓葉國就是 11/12 21:24
447F:推 kairiyu: 照這劇本 該出現全壘打了 11/12 21:24
448F:推 superatayal: 阿文輪著轟.... 11/12 21:24
449F:噓 sm02188612: 蔣不要拿球棒上壘率可能高些 11/12 21:24
450F:→ y012478: 有roots一起來燒喔。讓楓葉放火喔 11/12 21:24
451F:推 DeAmorFati: 拜託文文 11/12 21:24
452F:→ Mondesi2006: 郭 11/12 21:24
453F:推 rongs: 不是陽腳拉傷 志豪不錯啊 11/12 21:24
454F:噓 djviva: 誰幫忙遞上吳復連的球衣!! 求全壘打!! 11/12 21:24
455F:→ pig721: 把球僮 可惡 11/12 21:24
456F:推 helba: 球僮… 11/12 21:24
457F:→ qwer9290: 超級喜歡郭嚴文 11/12 21:24
458F:推 nightjar: 柯昱廷!!!!!!!!!!!!!!!!!!!!!!!!!!! 11/12 21:24
459F:推 Lizardon: 吳復連打全壘打 11/12 21:24
460F:推 yanki826: 超級喜歡郭嚴文... 11/12 21:24
461F:推 deandean: 輪到lamigo打線就有希望!!!!!! 11/12 21:24
462F:→ just8811: 選球一下 我蔣 11/12 21:24
463F:→ banbantone: 球童 11/12 21:24
464F:→ f59952: 對方蠻敢換的 我倒是覺得陳冠宇換太慢很傷 11/12 21:24
465F:→ yyhhzz: 阿文靠你了 11/12 21:24
466F:→ simple721: 準備DP了 11/12 21:24
467F:→ IRPT001: 結果是男球僮聊很爽 11/12 21:24
468F:→ ncb125: 超級~~~~~~~~~~~~~~~~~~~~~~~~~~~~~~~~~~~~~~~~~~~~~ 11/12 21:24
469F:推 cosmosET: 感覺機會來惹+1 11/12 21:24
470F:→ doig: 剛剛就自己投到滿壘0出局,三振秀,雙殺蔣 11/12 21:24
471F:推 eeggdd: 超級喜歡吳復連 11/12 21:24
472F:→ grizzly: 球僮不理旁邊的人XD 11/12 21:24
473F:推 feng6669: 好正 11/12 21:24
474F:→ yaya: ↗↗↗↗↗↗↗↗↗↗↗↗↗↗↗↗↗↗↗↗↗↗↗ 11/12 21:24
475F:推 abc1234586: 兄弟只剩下志豪跟飛刀了 11/12 21:24
476F:推 cuapple: 換投手就先送他一隻全壘打吧 11/12 21:24
477F:→ just8811: 真 吳復連 11/12 21:24
478F:推 stevewu929: 這球僮好兇 11/12 21:24
479F:推 terrylys: 超級喜歡吳復連~~再來一次! 11/12 21:24
480F:→ nunu1102: 超級喜歡吳復連!! 11/12 21:24
481F:噓 SAC430: 球僮~~~~~~~阿斯 11/12 21:24
482F:推 kingandmay: 妹子好正!!!!! 11/12 21:24
483F:→ white1003: 真的要派會選球的上來打國際賽 PP蔣??? 亂揮一通阿 11/12 21:24
484F:推 momofishj: 超級喜歡該換衣服惹 11/12 21:24
485F:推 eric2001vyvy: 猿文今天的額度還沒用,該來了!! 11/12 21:24
486F:推 cemin: 拜託選球!!!!!! 11/12 21:24
487F:推 leo2768: P覺球童不想理旁邊那個 只有苦笑回應 11/12 21:24
488F:→ Mondesi2006: 直接轟出去@@@@ 11/12 21:24
489F:→ crusaders811: 超級喜歡上一次打的不錯 11/12 21:24
490F:推 ccfred: 加拿大車輪戰了 11/12 21:24
491F:→ show11326: 加油 11/12 21:24
492F:推 zaknafein: 繼續上壘 給大師兄打 四棒就算了 11/12 21:24
493F:→ shulado: 這局大師兄能打就有機會 11/12 21:25
494F:推 gn00152097: 拜託換掉XD 11/12 21:25
495F:推 panda8877: 超級喜歡郭嚴文 11/12 21:25
496F:→ guitarjong: 廢物大王亂亂揮~~還不是要被K~~ 11/12 21:25
497F:→ Augustus7689: 加拿大也梭哈了 11/12 21:25
498F:→ jimmy885: 加拿大沒有中美人計 11/12 21:25
499F:推 tetsu2008: ↗↗↗↗↗↗↗↗↗↗↗↗↗↗↗↗↗↗↗↗↗↗↗ 11/12 21:25
500F:推 kensdream: 超級喜歡吳復連 11/12 21:25
501F:推 coldplay0211: 這首是什麼歌????????? 11/12 21:25
502F:→ ivan609: 不管怎麼樣 別打滾地就好... 要讓大師兄上來啊!!! 11/12 21:25
503F:→ kairiyu: 馬牌小姐也在牛棚盡力為國捐軀 11/12 21:25
504F:推 a0630: 安打 全壘打該出現了 11/12 21:25
505F:推 iamshang: 超級喜歡吳復連 11/12 21:25
506F:→ yaya: 無限期支持辣米糕 11/12 21:25
507F:推 love0120xxx: 微笑今天都被np 該還回去了 11/12 21:25
508F:推 LewisRong: 吳總 靠你了 11/12 21:25
509F:推 rover10: 足球扳平啦!!! 11/12 21:25
※ 編輯: theworld666 (118.160.25.234), 11/12/2015 21:25:21
510F:推 nick2142002: 追平轟樓下1000P 11/12 21:25
511F:→ lichun1228: 這打線看到LM上來 就安心多了 11/12 21:25
512F:推 hchs31705: 一臉我要狂揮棒跟一臉我要選球就是不一樣 11/12 21:25
513F:推 yp60802: 足球追平 2:2222222222222222222 11/12 21:25
514F:→ a8330028: 為什麼都用別人的音樂 11/12 21:25
515F:推 gn00499901: 輪到郭嚴文了!!!!!!!! 11/12 21:25
516F:→ shao729: 7:8 Final 11/12 21:25
517F:推 ycsheaven: 以後3B叫基轟來吧!至少揮棒永遠讓人期待! 11/12 21:25
518F:推 skyoasis: 加隊真的很謹慎,很強 11/12 21:25
519F:推 IAmaMouse: 能不能裡面穿吳復連,外面穿自己的球衣XD 11/12 21:25
520F:→ WenliYang: HR@!!!!! 11/12 21:25
521F:推 justin510199: 轟轟 11/12 21:25
522F:推 NewPoliceman: 相比之下 我們的總教練毫無存在感 ㄏ 11/12 21:25
523F:推 yehnshin: 球僮好正 11/12 21:25
524F:推 ndg2001: 總A出來打啦XDDDD 11/12 21:25
525F:推 eaglelee: 打到高志綱換代打?那你要叫誰蹲? 11/12 21:25
526F:→ sniperlin: 讓子彈飛 11/12 21:25
527F:→ creay222: 上壘啊!!!!!!!!!!!!!! 11/12 21:25
528F:推 yogaicon: 球僮好正~ 11/12 21:25
529F:→ nht: 轟轟轟~~~~~~~~~~~~~~ 11/12 21:25
530F:推 lml99: 叫吳復連上來打好嗎 11/12 21:25
531F:→ rabbit83035: 歪國人:抓臉 11/12 21:25
532F:→ leo1208: 極速132很好啦 11/12 21:25
533F:推 adonistao: 做個戰術吧 11/12 21:25
534F:噓 nifocy: 人家說換就換 台灣最喜歡爆了才換 11/12 21:25
535F:推 kevenchia: U大師什麼時候可以閉嘴? 11/12 21:25
536F:推 marka: 歪國人不喜歡太瘦的 11/12 21:25
537F:推 zergtide: 志豪TS狀況很差 反而在12強選球眼大開 11/12 21:25
538F:→ F93935: E全只會虐菜洗數據 11/12 21:25
539F:→ ash9911911: 超級喜歡全壘打 先追平在說 11/12 21:25
540F:推 NTPUpigeyes: 15:1 11/12 21:25
541F:推 furret: 今天打全壘打的都不會是戰犯 11/12 21:25
542F:推 teddy198909: 義大利好慘 11/12 21:25
543F:推 srobg666: 足球默默地平手了 但大家還是無感 11/12 21:25
544F:推 eizost: 如果高志綱那棒換人還有捕手嗎?? 11/12 21:25
545F:推 jehow: 這支很強 3A等級 11/12 21:25
546F:推 cjeff: 荷蘭15:1................ 11/12 21:25
547F:推 chenyp: 這時候還分哪隊有事嗎... 11/12 21:25
548F:→ jackie0712: 超級喜歡吳復連!!! 11/12 21:25
549F:推 kew0487: 我要拿1000p 11/12 21:25
550F:→ stockking: 換球衣吧!!! 11/12 21:25
551F:推 kobesniper: 那球僮比跳鳥舞的拉拉隊們正欸 11/12 21:25
552F:→ fireken: 上吧吳復連!!!!!!!!! 11/12 21:25
553F:推 hoseumou: 足球追平了 換你們棒球了 11/12 21:25
554F:推 Befine: 今天全用全壘打得分好了!追平吧! 11/12 21:25
555F:推 chun47: 加拿大正妹 11/12 21:25
556F:推 lalala888: 先選球再來兩分砲~~~~~ 11/12 21:25
557F:推 hank61910: 135左投 11/12 21:25
558F:推 iverlung: 只能靠LM了 在尻一隻吧 猿文 11/12 21:25
559F:→ IRPT001: 啦啦隊比歪國大嫂團不正 11/12 21:25
560F:→ yaya: ^_______^ 11/12 21:25
561F:→ yyhhzz: 阿文加油!!!!!!! 11/12 21:25
562F:推 smilesuki: 追平樓下我全部P幣 11/12 21:25
563F:推 ITN02: 義大利被屠了 11/12 21:25
564F:推 boris0114: 還有一個捕手啊 11/12 21:25
565F:推 pplilian: 超級喜歡吳大頭! 11/12 21:25
566F:推 tmbg1228: 轟炸機上去打也不會比蔣爛 11/12 21:25
567F:→ sbreezer: 15比1 打小孩喔 11/12 21:25
568F:噓 HiHiCano: 這應該是一人左 11/12 21:25
569F:推 ned90245: 蔡明里可不可以閉嘴啊,每次大局只要他一開口馬上沒攻勢 11/12 21:25
570F:→ pig721: 明天沒比賽 才會這樣調度吧 11/12 21:25
571F:→ kouhei: 超級喜歡!!!!!!!!!!!!!!!!!!!!!!!! 11/12 21:26
※ 編輯: theworld666 (118.160.25.234), 11/12/2015 21:27:28
572F:推 OalexO: 是翻譯再跟球僮妹聊天嗎 11/12 21:26
573F:→ a0630: 音樂不好聽 11/12 21:26
574F:推 ShockG: 對面換投都換得很快啊 11/12 21:26
575F:→ LewisRong: 對方換得好果決 11/12 21:26
576F:推 hiro1221: 啦啦隊輸了... 11/12 21:26
577F:推 ctsk0302: 張進德? 11/12 21:26
578F:推 panjiongkai: 張晉德也是捕手 11/12 21:26
579F:推 paris0826: 只能靠LM 11/12 21:26
580F:推 Romeo5566: 這個 控球很爛 11/12 21:26
581F:→ ycsheaven: 反超吧!!! 11/12 21:26
582F:→ Befine: 今天全用全壘打得分好了!追平吧! 11/12 21:26
583F:→ Mondesi2006: 直接轟出去吧 !!!!!!!!!!!!!!!!!!!!!!!!!!!!!!! 11/12 21:26
584F:→ kevenchia: 足球還能晉級嗎 不是前面都輸@@????? 11/12 21:26
585F:→ jimmy885: 還有張進德吧,好歹也是旅外 11/12 21:26
586F:→ jehow: 義大利太早來 倦了 想家了吧 11/12 21:26
587F:推 bunbunbun: 郭嚴文不怕左投的!!!!! 11/12 21:26
588F:→ lml99: 來人阿 上吳復連 11/12 21:26
589F:推 freedom168: 靠你了啊文 11/12 21:26
590F:推 HumanBenzene: OH..... 11/12 21:26
591F:推 bluesophia: 猿文加油,選球啊 11/12 21:26
592F:推 OsirisWar: 微笑加油... 11/12 21:26
593F:推 shaiking: 啦啦隊都比蔣強 11/12 21:26
594F:推 seeyeu: 足球 二比二平手 11/12 21:26
595F:推 p123i456g: 認真說,除了陽,其它都應該派lm打者就好 11/12 21:26
596F:→ Puye: 對面換投都很果斷 也有成效 我們的?????? 11/12 21:26
597F:推 caku0101: 看看別人教練團 11/12 21:26
598F:噓 loveinmars: = =... 11/12 21:26
599F:推 peanut7516: 轟啊 11/12 21:26
600F:推 tallhand: 超級喜歡 11/12 21:26
601F:推 amethystboy: 這麼低也撿 11/12 21:26
602F:→ WenliYang: ................. 11/12 21:26
603F:推 straight0711: 有種吱隊一人一支啊 11/12 21:26
604F:推 deathnight41: 猿文加油 轟轟轟 11/12 21:26
605F:推 luisak: 要馬就HR 不然堆壘包最後也是殘壘死 11/12 21:26
606F:推 j4418m: 轟呀!! 11/12 21:26
607F:推 cmw5566: 台灣足球目前在泰國客場踢 2:2平手中!!!!!!!!!!!!!!!!!! 11/12 21:26
608F:推 goury: 沒穿聖衣啊 11/12 21:26
609F:噓 if2: 這好球? 11/12 21:26
610F:→ Amphetame: 加國教頭也蠻迷信的 11/12 21:26
611F:推 ycaa: 未看先猜 一球被入魂 11/12 21:26
612F:→ yaya: 無限期支持辣米糕… 11/12 21:26
613F:推 karen71014: 復連加油啊 11/12 21:26
614F:推 Augustus7689: 真準 11/12 21:26
615F:→ hank61910: K味濃 11/12 21:26
616F:→ HiHiCano: Hr 11/12 21:26
617F:推 AceCash: 轟吧轟吧 11/12 21:26
618F:噓 x77: 又要雖敗猶榮了嗎? 11/12 21:26
619F:噓 jimgene: 哪來控球不好... 11/12 21:26
620F:推 ivan609: 猿文加油啊!!!!!!!!!!! 11/12 21:26
621F:推 teyy26: 球僮好正 11/12 21:26
622F:推 elic2577: 以機率來講,該安打了,加油啊 11/12 21:26
623F:→ cjeff: 這也好球 難打了..... 11/12 21:26
624F:推 SXRD: ...這樣怎打 死裁判 11/12 21:26
625F:推 BDACK: 好球= =? 11/12 21:26
626F:→ bluesophia: 好準 11/12 21:26
627F:→ deathnight41: 猿文串連 11/12 21:26
628F:→ rabbit83035: 尻一下尻一下啦!! 11/12 21:26
629F:推 zorgYen: K味濃 11/12 21:26
630F:→ nightjar: 足球踢得好能踢亞洲盃 11/12 21:26
631F:→ pplilian: 不行哦!好歹留給位子給火哥 11/12 21:26
632F:→ shao729: 沒選余德龍真的可惜 11/12 21:26
633F:推 eno03: 這麼甜沒揮 11/12 21:26
634F:→ stockking: 吳復連比較強 11/12 21:26
635F:推 chen740530: 雙殺打 11/12 21:27
636F:推 BlueMoonss: 主審...別鬧了 11/12 21:27
637F:推 newhop520: 感覺剛那支比較好打 11/12 21:27
638F:推 anonym48: 酸民退散 酸中你很爽嗎 11/12 21:27
639F:推 xuptjo: K味道濃 11/12 21:27
640F:推 nunu1102: 吳復連 11/12 21:27
641F:推 nonoyu: 猿文加油啊! 11/12 21:27
642F:→ ashin0226: 贏不了QQ 11/12 21:27
643F:推 eannana: DP蔣 11/12 21:27
644F:噓 cucu1126: 可以不要一上來就投這麼準嗎... 11/12 21:27
645F:推 asonge0000: 好險............ 11/12 21:27
646F:→ wan8088: ... 11/12 21:27
647F:→ if2: 阿給!!!! 11/12 21:27
648F:→ WenliYang: ....... 11/12 21:27
649F:→ ivan609: 還好沒DP............= = 11/12 21:27
650F:推 trylin: 鳥滾 11/12 21:27
651F:→ deathnight41: 這打...... 11/12 21:27
652F:→ westlml: 差點........... 11/12 21:27
653F:→ stockking: 這哪招~~ 11/12 21:27
654F:推 ash9911911: 好險 11/12 21:27
655F:推 wangsan: 加油啊!! 11/12 21:27
656F:推 crusaders811: 這樣也能打到 太神了吧 11/12 21:27
657F:→ bluesophia: 這也打 XD 11/12 21:27
658F:→ SXRD: 幹嘛硬拉==差一點死2個 11/12 21:27
659F:→ Puye: ....... 11/12 21:27
660F:→ IRPT001: 太低了吧 11/12 21:27
661F:→ panjiongkai: 好險... 11/12 21:27
662F:→ hank61910: 感覺吃鍋貼了 11/12 21:27
663F:推 IAmaMouse: 好險夠軟 11/12 21:27
664F:推 LauyaD: 這樣也打的到 11/12 21:27
665F:推 zergtide: 靠大師兄了... 11/12 21:27
666F:→ pplilian: 浪費了 11/12 21:27
667F:噓 bbo9527: 還我吳復連 11/12 21:27
668F:→ kouhei: 大酥胸!!!!!!!!!!!!!!!!!!!!!!!!!!!!!! 11/12 21:27
669F:→ yyhhzz: 差點dp 11/12 21:27
670F:推 wende520: 靠大師兄了 11/12 21:27
671F:→ loveinmars: 唉 酥胸拜託了 11/12 21:27
672F:→ jimmy885: 就亂打流的 11/12 21:27
673F:推 t29656477: 哪招... 11/12 21:27
674F:→ HiHiCano: 郭嚴文 沒三振 就很棒了 11/12 21:27
675F:推 saint01: 這麼低還打 11/12 21:27
676F:推 daniel1344: 追打壞球 11/12 21:27
677F:推 nepenthes7: 幹 差點do 11/12 21:27
678F:→ nunu1102: 好險好險 11/12 21:27
679F:推 nhtono: 一堆唱雖的真的是嘴巴癢 11/12 21:27
680F:推 lovedream927: hhhhhhhh 11/12 21:27
681F:推 furnaceh: 這球撈金魚哦 11/12 21:27
682F:推 jess730612: 靠...那球貼地了吧 11/12 21:27
683F:推 asadman1523: 這樣也打得道XD 猛猛 11/12 21:27
684F:推 REXA: 國內王準備中 11/12 21:27
685F:推 qqstory: 好險差點DP 11/12 21:27
686F:推 fireda: 打這麼低的球做啥 11/12 21:27
687F:推 tcc1210: 三小啦...... 11/12 21:27
688F:推 lee1023: 足球追平啦 11/12 21:27
689F:推 Kreen: 好險= = 11/12 21:27
690F:推 w921216: 這麼低... 11/12 21:27
691F:→ trylin: 師兄炸一支救救台灣好嗎 ? 11/12 21:27
692F:推 lichun1228: 大師兄 靠你了!!!!! 不期待你下一棒 11/12 21:27
693F:推 dxc669: 加拿大守備真的好猛 11/12 21:27
694F:→ WenliYang: 差點又.... 11/12 21:27
695F:→ if2: 台灣希望 大酥胸! 11/12 21:27
696F:推 notea: 智勝靠你了 11/12 21:27
697F:推 cover543: 是打跑吧 不過沒必要硬揮啊 11/12 21:27
698F:→ dtonesla: 差點DP 11/12 21:27
699F:推 a7811292002: 這麼低也在打... 11/12 21:27
700F:推 pf775101: 郭連這種球也能打得到也很佩服.... 11/12 21:27
701F:→ pig721: 不內穿5號嗎 11/12 21:27
702F:→ lasterlife: ... 11/12 21:27
703F:推 Amilous: 會保送嗎 11/12 21:27
704F:推 Qailsa: 賣鬧 11/12 21:27
705F:推 OAzenO: 挖地瓜了還打到了XDDD 11/12 21:27
706F:推 oxx: 這也撈起來 11/12 21:27
707F:噓 yabbie: 硬要打 11/12 21:27
708F:噓 trouble04323: 科科 挖地瓜 肚子餓了 挖地瓜也在揮 11/12 21:27
709F:→ stockking: 他自己都笑了~ 11/12 21:27
710F:→ straight0711: 貼地還打 11/12 21:27
※ 編輯: theworld666 (118.160.25.234), 11/12/2015 21:29:07
711F:推 AutumnLi: 郭嚴文哈哈哈 11/12 21:27
712F:→ asonge0000: 大師兄!!!!!!!!!!!!!!!!!!!!!!!! 11/12 21:27
713F:→ cpc21478: 這樣也打到的+1 11/12 21:27
714F:→ ivan609: ↗↗↗↗↗↗↗↗↗↗↗↗↗↗↗↗↗↗↗↗↗↗↗↗↗↗ 11/12 21:27
715F:→ SXRD: 靠大師兄雙響砲了 11/12 21:27
716F:→ LauyaD: 再一隻吧 11/12 21:27
717F:推 furret: 起碼沒雙殺.. 11/12 21:27
718F:推 HeroFun: 鯊小 三振就算了還想害隊友喔 11/12 21:27
719F:噓 looks143895: 硬打 是因為裁判好球袋很鬆 11/12 21:27
720F:噓 JiPuSai: ...................................... 11/12 21:27
721F:噓 shulado: 這球也打 11/12 21:27
722F:→ kouhei: 大酥胸!!!!!!!!!!!!!!!!!!!!!!!! 11/12 21:27
723F:→ bunbunbun: 台灣隊長!!! 11/12 21:27
724F:→ iamOsaka: 飆一隻吧 11/12 21:27
725F:→ OsirisWar: ================微笑的一百種打擊姿勢=============== 11/12 21:27
726F:推 justting: 這也打的到。。 11/12 21:27
727F:→ yaya: ↗↗↗↗↗↗↗↗↗↗↗↗↗↗↗↗↗↗↗↗↗↗↗ 11/12 21:27
728F:推 joliecheer: 阿給拜託再來一發吧 11/12 21:27
729F:推 just8811: ↗↗↗↗↗↗↗↗↗↗↗↗↗↗↗↗↗↗↗↗↗↗↗↗↗ 11/12 21:27
730F:→ WenliYang: HR@!!!!! 11/12 21:27
731F:推 lchyde666: 跟第一局劇本好像 11/12 21:27
732F:→ aliceleaves: ................................ 11/12 21:27
733F:推 Befine: 今天全用全壘打得分好了!追平吧! 11/12 21:27
734F:推 alwaysstrong: 沒有撈起來啊~ 11/12 21:27
735F:→ chen740530: 地瓜球也打 11/12 21:27
736F:→ kara21: 拜託 11/12 21:27
737F:推 wbesjdje: 大師兄再來一發 11/12 21:27
738F:→ Puye: 硬要碰 11/12 21:27
739F:推 dl92114: 還好沒dp.... 11/12 21:27
740F:推 aleckleehaha: 這樣也揮到XDDDDDDD 11/12 21:27
741F:→ freedom168: 大師兄 求你 11/12 21:27
742F:推 doig: 至少超級喜歡很認真跑,屁屁就慢跑 11/12 21:27
743F:推 tinalai: ↗↗↗↗↗↗↗↗↗↗↗↗↗↗↗↗↗↗↗↗↗↗↗↗↗ 11/12 21:27
744F:→ furnaceh: 酥兄 11/12 21:27
745F:→ just8811: ↗↗↗↗↗↗↗↗↗↗↗↗↗↗↗↗↗↗↗↗↗↗↗↗↗ 11/12 21:27
746F:推 hiro1221: 這球... 11/12 21:27
747F:推 bob4758: 加油拜託 11/12 21:27
748F:推 ya7814: 這樣都能打… 11/12 21:27
749F:→ ivan609: ↗↗↗↗↗↗↗↗↗↗↗↗↗↗↗↗↗↗↗↗↗↗↗↗↗↗ 11/12 21:27
750F:→ nonoyu: 大師兄加油!!!!!! 11/12 21:27
751F:推 littlethree: MVP 靠你了 11/12 21:27
752F:→ maedchen: 有沒有這麼愛撈? 11/12 21:27
753F:→ crusaders811: 不過我們變成跑得慢的在壘上 有點虧 11/12 21:27
754F:→ rabbit83035: 靠大師兄了!! 11/12 21:27
755F:→ tallhand: 打擊技巧真好 11/12 21:27
756F:推 walk1987: 這樣也撈的到... 11/12 21:27
757F:→ pplilian: 今天如果輸掉戰犯就是蔣屁跟郭泰源 11/12 21:27
758F:推 liyuoh: .....這 11/12 21:27
759F:推 justin510199: Hr 11/12 21:27
760F:推 jeff1008: 大師兄炸裂 樓下1000P 11/12 21:27
761F:推 comicgirl: 求求你大師兄 11/12 21:27
762F:→ asonge0000: 影響投手 11/12 21:27
763F:→ ivan609: ↗↗↗↗↗↗↗↗↗↗↗↗↗↗↗↗↗↗↗↗↗↗↗↗↗↗ 11/12 21:27
764F:→ bluesophia: 師兄加油 11/12 21:28
765F:推 luffymaxxd: ↗↗↗↗↗↗↗↗↗↗↗↗↗↗↗↗↗ 11/12 21:28
766F:推 xsexyx: 尻出去吧 11/12 21:28
767F:→ WenliYang: HR@!!!!! 11/12 21:28
768F:推 robertchun: ↗↗↗↗↗↗↗↗↗↗↗↗↗↗↗↗↗↗↗↗↗↗↗↗ 11/12 21:28
769F:→ loveinmars: 水 拐死他 11/12 21:28
770F:推 nht: 大師兄加油!!! 11/12 21:28
771F:→ blue1204: 志豪兩次上壘都被微笑郭這樣搞XDDD 11/12 21:28
772F:→ fireda: 原來阿給也會這招 11/12 21:28
773F:→ justting: 推 11/12 21:28
774F:→ SXRD: 剛那球要是朗神早安打了 11/12 21:28
775F:→ kouhei: 隊長拜託了 11/12 21:28
776F:推 WINNIENO29: 真的很佩服他 11/12 21:28
777F:→ just8811: ↗↗↗↗↗↗↗↗↗↗↗↗↗↗↗↗↗↗↗↗↗↗↗↗↗ 11/12 21:28
778F:推 a8330028: 炸裂吧 11/12 21:28
779F:推 msekili: 球來就打差點死兩個…… 11/12 21:28
780F:推 annie588670: 大師兄你可以的 11/12 21:28
781F:→ t29656477: ↗ ↗ ↗ ↗ ↗ ↗ ↗ ↗ ↗ ↗ ↗ 11/12 21:28
782F:噓 perry27: 吳復連呢 11/12 21:28
783F:→ pplilian: 大師兄我跟你跪 11/12 21:28
784F:推 twinspenny: 來吧!大師兄 11/12 21:28
785F:推 applebird: 這球真的是球來就打的最高境界 11/12 21:28
786F:推 ccfred: 大師兄 11/12 21:28
787F:→ pig721: 拐氣 11/12 21:28
788F:→ jimgene: 0.545的打擊率 11/12 21:28
789F:→ panjiongkai: 捕手自己亂? 11/12 21:28
790F:→ AceCash: 轟啦轟啦 11/12 21:28
791F:→ Roy3567: 至少比PP好 11/12 21:28
792F:推 goodgril: 拜託你了 11/12 21:28
793F:推 minyminy1993: ↗↗ ↗ ↗ ↗ ↗ ↗ ↗ ↗ ↗ ↗ ↗ 11/12 21:28
794F:→ taimu: ... 11/12 21:28
795F:→ notea: ibb抓神全 11/12 21:28
796F:推 FirstClass: 破壞他節奏 11/12 21:28
797F:推 cissant: 你可以 11/12 21:28
798F:推 leokind: HR啊 11/12 21:28
799F:推 quite: 郭泰源 每次都戰犯 11/12 21:28
800F:推 nightmare2: 大師兄也太有喜感 11/12 21:28
801F:→ Kreen: 大師兄拜託了! 11/12 21:28
802F:推 gamertwo: 大師兄繼續讓大家舒服吧! 11/12 21:28
803F:→ fox999: 5成45...強 11/12 21:28
804F:→ just8811: 超級喜歡 大酥兄 11/12 21:28
805F:→ wangsan: 大師兄加油啊 11/12 21:28
806F:推 team0801: 師兄扛出去啊!!! 11/12 21:28
807F:推 orangecookie: 這麼低也打的到 蔣可以看看這個跑壘速度嗎 11/12 21:28
808F:推 diditomtom: 大師兄! 11/12 21:28
809F:推 a51062004: 大師兄炸裂 樓下500P 11/12 21:28
810F:推 Hiromitsu: 大師兄來一發!!!!!!!!!!!!! 11/12 21:28
811F:→ chen740530: 郭嚴文\的動態視力 11/12 21:28
812F:→ robertchun: 話說足球那邊 台灣進球了 2:2 11/12 21:28
813F:→ stockking: 有感覺!!! 11/12 21:28
814F:→ yaya: 無限 支持 辣米糕 11/12 21:28
815F:推 OlenG: 這主審好強帶那麼大 7局掉7分 投手真的該問斬 11/12 21:28
816F:→ tallhand: 雙響泡 11/12 21:28
817F:推 dezem1111: 拐死他 11/12 21:28
818F:→ justting: 我要分數,快來 11/12 21:28
819F:推 crossdunk: 大師兄全壘打 發一萬p 11/12 21:28
820F:推 itachi0609: 大師兄靠你了 11/12 21:28
821F:→ furnaceh: 酥兄來一發啦 11/12 21:28
822F:推 aljust12: ↖↖↖↖↖↖↖↖↖↖↖↖↖↖↖↖↖↖↖↖↖↖↖↖↖↖ 11/12 21:28
823F:推 maxian30201: 要敬遠?! 11/12 21:28
824F:→ asadman1523: 是她是他 11/12 21:28
825F:→ pplilian: ↗ ↗ ↗ ↗ ↗ ↗ ↗ ↗ ↗ ↗ ↗ ↗ ↗ 11/12 21:28
826F:→ Befine: ↗↗↗↗↗↗↗↗↗↗↗↗↗↗↗↗↗↗↗↗↗↗↗↗↗↗ 11/12 21:28
827F:推 Rekcahpot: 來一砲吧!! 台灣隊長!! 11/12 21:28
828F:推 seashel: ↗↗↗↗↗↑↑↑↑↑↑↑↑↑↖↖↖↖↖↖↖↖↖↖↖ 11/12 21:28
829F:推 hoseumou: 足球追平了 換你們棒球了 快呀 11/12 21:28
830F:推 riniu0728: 加油啊啊啊 11/12 21:28
831F:推 seeyeu: 來個追平砲 11/12 21:28
832F:→ xsexyx: 跪求尻 11/12 21:28
833F:推 redh: 需要一支 11/12 21:28
834F:推 lovelyhan: 只能靠林智勝了!!!!! 11/12 21:28
835F:推 loverxa: 大濕胸 11/12 21:28
836F:→ WenliYang: HR@!!!!! 11/12 21:28
837F:推 apple7146: 大師兄雙響炮樓下200p 11/12 21:28
838F:→ yaya: ↗↗↗↗↗↗↗↗↗↗↗↗↗↗↗↗↗↗↗↗↗↗↗ 11/12 21:28
839F:→ wuklean: 亂打一通 11/12 21:28
840F:推 hanai0305: 轟啊 11/12 21:28
841F:→ zergtide: 0.545...2HR 11/12 21:28
842F:推 bluechilly: ↗↗↗↗↗↗↗↗↗↗↗↗↗↗↗↗↗↗↗↗↗↗↗↗ 11/12 21:28
843F:→ straight0711: 哀 鍋貼再兩局就送到了 11/12 21:28
844F:推 a1len: ↗↗↗↗↗↗↗↗↗↗↗↗↗↗↗↗↗↗↗↗↗↗↗↗↗↗↗ 11/12 21:28
845F:推 mebrother: 下一棒會換高嗎? 11/12 21:28
846F:推 allenz78: 師兄 11/12 21:28
847F:推 aries5420: 2出局才開始反攻啊! 11/12 21:28
848F:推 jeyang: 酥胸!!!!拜託惹 11/12 21:28
849F:推 lml99: 靠你惹 11/12 21:28
850F:推 likeblue: 再來一發吧! 11/12 21:28
851F:→ pig721: 再一支就旅外了 11/12 21:28
852F:→ Amilous: 我加拿大隊就全丟壞球 11/12 21:28
853F:→ rabbit83035: 台灣隊長打啊! 11/12 21:28
854F:推 windjoe27: 師兄反攻要靠你了 11/12 21:28
855F:→ SXRD: 拜託尻啊 大師兄我跪你 11/12 21:28
856F:推 mood5168: 選基宏都比較好…… 11/12 21:28
857F:→ trylin: 阿這球沒打 ... 11/12 21:28
858F:→ stockking: 好甜! 11/12 21:28
859F:推 gfg714kimo: 出去啊啊啊啊 11/12 21:28
860F:→ Befine: ↗↗↗↗↗↗↗↗↗↗↗↗↗↗↗↗↗↗↗↗↗↗↗↗↗↗ 11/12 21:28
861F:→ crossdunk: 大師兄全壘打樓下一萬p 11/12 21:28
862F:推 ponytail0048: .545 超強 11/12 21:28
863F:推 love0120xxx: 這球可惜 11/12 21:28
864F:推 emilian1116: ... 11/12 21:28
865F:推 chihchin0112: 大師兄炸裂,我請樓下吃雞排 11/12 21:28
866F:→ just8811: 會怕就好 11/12 21:28
867F:→ ivan609: 這球沒打 太可惜0..................... 11/12 21:28
868F:→ jimgene: 真的好準 11/12 21:28
869F:推 LewisRong: 炸一個吧 11/12 21:28
870F:→ pf775101: 超可惜 11/12 21:28
871F:→ wende520: 沒打有點可惜 11/12 21:28
872F:→ HiHiCano: K味濃 11/12 21:28
873F:→ riniu0728: ↗↗↗↗↗↗↗↗↗↗↗↗↗↗↗↗↗↗↗↗↗↗↗ 11/12 21:28
874F:推 mico409: 主審好球帶寬??? 我們看同場嗎 11/12 21:28
875F:推 DJY: 會怕喔 11/12 21:28
876F:推 Augustus7689: 沒採 11/12 21:28
877F:推 hank61910: 錯過了,K味濃 11/12 21:28
878F:→ OsirisWar: 甜蜜蜜 11/12 21:28
879F:推 apjj: 大師兄加油啦 11/12 21:28
880F:→ jimmy885: 大師兄自己都笑出來了 11/12 21:28
881F:→ chen740530: 紅中不打喔 11/12 21:28
882F:→ ccfred: 這任投手好像是最強的... 11/12 21:28
883F:推 cjeff: 這投手真難打 11/12 21:28
884F:→ Rekcahpot: 拜託來一砲!!!! 11/12 21:28
885F:→ Puye: 尻一發 或2B以上 拜託 11/12 21:28
886F:→ oxx: ↗↗↗↗↗↗↗↗↗↗↗↗↗↗↗↗↗↗↗↗↗↗↗↗↗↗↗↗ 11/12 21:28
887F:推 godmanntut: 放了這球,可惜 11/12 21:28
888F:→ Befine: ↗↗↗↗↗↗↗↗↗↗↗↗↗↗↗↗↗↗↗↗↗↗↗↗↗↗ 11/12 21:28
889F:推 tfe60: 這球.. 11/12 21:28
890F:推 dynastyraide: ↗ ↗ ↗ ↗ ↗ ↗ ↗ ↗ ↗ ↗ ↗ ↗ 11/12 21:28
891F:→ just8811: ↗↗↗↗↗↗↗↗↗↗↗↗↗↗↗↗↗↗↗↗↗↗↗↗↗ 11/12 21:28
892F:→ WenliYang: HR@!!!!! 11/12 21:28
893F:→ bluesophia: 加油加油 11/12 21:28
894F:→ tarjan33167: ====================================hr樓下5566p 11/12 21:28
895F:推 milk7054: 大酥胸 11/12 21:29
896F:推 azt911231: .545 太神了吧 11/12 21:29
897F:噓 Aurthelan: 拜託下次可以不要選爪嗎廢爆 11/12 21:29
898F:→ pplilian: 兩分就好拜託~~~~~~ 11/12 21:29
899F:推 ubuntuable: 加油啊 11/12 21:29
900F:→ Amilous: KKK 11/12 21:29
901F:→ asonge0000: K 11/12 21:29
902F:推 everybody513: 大酥胸Hrhrhrhrhr 11/12 21:29
903F:→ trylin: KKQQQ 11/12 21:29
904F:→ panjiongkai: ..... 11/12 21:29
905F:推 karenh118: 足球加油! 11/12 21:29
906F:推 Roystu: gg 11/12 21:29
907F:→ Augustus7689: 乾 11/12 21:29
908F:→ emilian1116: .. 11/12 21:29
909F:→ westlml: KKKKKKKKKKKKKKKKKKK 11/12 21:29
910F:推 xuptjo: K 11/12 21:29
911F:→ yaya: ……… 11/12 21:29
912F:→ just8811: ↗↗↗↗↗↗↗↗↗↗↗↗↗↗↗↗↗↗↗↗↗↗↗↗↗ 11/12 21:29
913F:→ f12345678900: .................. 11/12 21:29
914F:→ everybody513: r 11/12 21:29
915F:→ ivan609: 142 空振'...........= = 11/12 21:29
916F:推 if2: 哭.. 11/12 21:29
917F:→ LauyaD: k 11/12 21:29
918F:推 daily07: 哭哭 11/12 21:29
919F:→ cjeff: 難打 11/12 21:29
920F:→ HiHiCano: KKKKKKKKKKKKK 11/12 21:29
921F:推 eddie1212: ~~~~~~~ 11/12 21:29
922F:→ zergtide: KKK 11/12 21:29
923F:推 newspikachu: 兩個紅中沒打 11/12 21:29
924F:推 super5000: K 11/12 21:29
925F:→ ccfred: 悲劇了 11/12 21:29
926F:→ Lizardon: 怎麼佈IBB 抓高鋼鋼 11/12 21:29
927F:推 tetsu2008: .. 11/12 21:29
928F:→ HeroFun: 亂揮 11/12 21:29
929F:→ apple7146: QQ 11/12 21:29
930F:推 w223357: K 11/12 21:29
931F:噓 SilentBob: ....... 11/12 21:29
932F:推 ZHENJI: ... 11/12 21:29
933F:推 smart1989: K.... 11/12 21:29
934F:推 calvinh: ... 11/12 21:29
935F:→ straight0711: 哀 鍋貼再兩局就送到了 11/12 21:29
936F:→ freedom168: K 11/12 21:29
937F:推 IRPT001: 兇 11/12 21:29
938F:→ gamertwo: 我難過 11/12 21:29
939F:→ WenliYang: sucks!!!!!!!!!!!!!!!!!!!!!!!!! 11/12 21:29
940F:推 rappig: 氣都沒了 11/12 21:29
941F:→ cpc21478: 啥小 這麼快 11/12 21:29
942F:→ chen740530: 空氣擊沉 11/12 21:29
943F:推 nepenthes7: GG 11/12 21:29
944F:推 lovebuddy: QQ 11/12 21:29
945F:→ trylin: 無雙還是要CD ........ 11/12 21:29
946F:→ allenz78: 可惜 11/12 21:29
947F:→ jimgene: 正中直球 11/12 21:29
948F:→ Kreen: 慘了。 11/12 21:29
949F:推 terfd: gg 11/12 21:29
950F:→ stockking: 氣勢都弱了 11/12 21:29
951F:噓 amazon10810: e04 11/12 21:29
952F:→ azt911231: 平均打兩次就1支安打 11/12 21:29
953F:推 knml: 完全沒氣了… 11/12 21:29
954F:推 wayne971: K 11/12 21:29
955F:→ HiHiCano: 鍋貼M6 11/12 21:29
956F:推 yyhhzz: ……要吃鍋貼了 11/12 21:29
957F:噓 srobg666: 因為有你的噓聲為我帶來成功 分享感動~~ 11/12 21:29
958F:推 VMX: 會變型而已 11/12 21:29
959F:→ tetsu2008: 中心打線... 11/12 21:29
960F:→ bunbunbun: 加拿大換投換真好 11/12 21:29
961F:推 Colantoni: 哀... 11/12 21:29
962F:噓 chadcoco1222: 蔣真的很廢 11/12 21:29
963F:→ liyuoh: 該不該關電視QQ 11/12 21:29
964F:→ crusaders811: 這支蠻威的 11/12 21:29
965F:推 MirageAngel: ˙˙˙˙˙˙˙˙˙˙˙˙˙˙˙˙˙˙˙˙˙˙˙˙~ 11/12 21:29
966F:推 newhop520: 這個真的強 11/12 21:29
967F:推 karen71014: 我聞到游龍的味道了……… 11/12 21:29
968F:→ Rekcahpot: 這投手控球好猛!! 就是上一局滿壘殘 氣勢都沒了 11/12 21:29
969F:推 yniori: 氣沒了 11/12 21:29
970F:推 aa800129315: 加油加油!!!中華隊!! 11/12 21:29
971F:→ joliecheer: 要寫個慘字 QAQ 11/12 21:29
972F:推 dxc669: 兩個紅中沒打就猜錯球阿 這也要酸 靠北 11/12 21:29
973F:推 potentio: 集氣! 11/12 21:29
974F:→ kara21: 滿壘沒得分 氣都沒了 11/12 21:29
975F:推 furret: 對手換投很果決 11/12 21:29
976F:推 dl92114: Nooooooo....orz 11/12 21:29
977F:推 Mondesi2006: 主播哀嚎 11/12 21:29
978F:→ ionchips: …… 11/12 21:29
979F:推 ACGfun: 可G 11/12 21:29
980F:→ love0120xxx: 竟然會塞內角速球= = 11/12 21:29
981F:推 spaniyavic: 氣散了… 11/12 21:29
982F:推 Crazyfire: 鍋貼開始熱鍋了.................. 11/12 21:29
983F:推 meegan: ↗↗↗↗↗↗↗↗↗↗↗↗↗↗↗↗↗↗↗↗↗↗↗ 11/12 21:29
984F:推 eno03: 好RP 上來不閃躲就是好球連發 11/12 21:29
985F:→ yaya: 戰犯蔣 11/12 21:29
986F:→ OsirisWar: 現在打電話來得及嘛,鍋貼還有剩嗎 11/12 21:29
987F:推 daniel1344: 前一顆放掉真的是捶心肝 11/12 21:29
988F:→ SXRD: 唉 棒次到底誰那會排 排那麼爛 11/12 21:29
989F:→ ash9911911: 糟糕 已經聞到鍋貼味了 11/12 21:29
990F:噓 STTKK: GG 蔣要黑到底了....... 11/12 21:29
991F:推 jim04072001: 鍋貼該煎了 11/12 21:29
992F:推 gameloser: 下一局又是國內王 11/12 21:29
993F:→ eddie1212: 氣勢很重要 11/12 21:29
994F:推 aliceleaves: ................................ 11/12 21:29
995F:推 vulurn: 鍋貼的味道都飄來我家了 11/12 21:29
996F:推 impactwar: 士氣崩盤 就跟對荷蘭8局一樣 11/12 21:29
997F:推 lovedesigh: 這位也是高階1A嗎 11/12 21:29
998F:推 tj474474: 恭喜lamigo這局獲得三個出局數 11/12 21:29
999F:推 ckbo0424: 氣勢沒了 11/12 21:29
1000F:推 kukuso: 不是氣 是人家投手真的高一個等級 11/12 21:29
1001F:→ notea: 要打給八方雲集點餐了 11/12 21:29
1002F:噓 thid5335: 11/12 21:29
1003F:→ westlml: 正中直球揮空~可惜了~逮到大概就出去了 11/12 21:29
1004F:→ xsexyx: 廣告來噓ㄧ下蔣 11/12 21:29
1005F:推 ShockG: 對面有危機就換了 不死撐的 11/12 21:29
1006F:推 vvvi: 熟悉的劇本 11/12 21:29
1007F:噓 scatology: ..............蔣 11/12 21:29
1008F:推 TSbb: GG 11/12 21:29
1009F:推 sprites520: 慘 11/12 21:29
1010F:推 shooooooboom: 鍋貼真的煎一半了 加油好嗎 11/12 21:29
1011F:推 osakakobe: 上一局的關係,沒氣了 11/12 21:29
1012F:推 dm03: 開強振可惜~ 11/12 21:29
1013F:推 hiro1221: 這兩球都還蠻中間的耶 11/12 21:29
1014F:推 sbreezer: 被屁屁氣都DP掉了 11/12 21:29
1015F:推 flyinwinds: 可惜了~~ 11/12 21:29
1016F:→ guitarjong: 逃猿好棒棒~ 11/12 21:29
1017F:推 tingover: 剛好餓了 11/12 21:29
1018F:推 ohmygodha: 今天三個打HR的下個打席都被K= =" 11/12 21:29
1019F:→ jimmy885: 這棒過去,看來鍋貼已經可以吃了 11/12 21:29
1020F:推 kairiyu: 繼續罵蔣屁 11/12 21:29
1021F:推 abc0922002: 可惜 11/12 21:29
1022F:推 burglur: 下局攻擊很不期待耶 11/12 21:29
1023F:推 wangsan: 只要不再失分我相信還是有機會的! 11/12 21:29
1024F:噓 cissant: 完全是上一局 唉 11/12 21:29
1025F:推 cychine: .................................. 11/12 21:29
1026F:→ f59952: 棒球比賽 就是機率的串聯 11/12 21:29
1027F:→ w223357: 熟悉的味道 11/12 21:29
1028F:→ pplilian: 超級討厭蔣屁屁 11/12 21:29
1029F:→ SilentBob: 鍋貼店關了 11/12 21:29
1030F:推 Harute: 如果輸了蔣真的戰犯無誤 11/12 21:29
1031F:推 NTJL: 結果今天打HR的這兩局都被K QQ 11/12 21:29
1032F:推 jkl852: 都ㄐㄧㄤˇ 11/12 21:29
1033F:→ kukuso: 這位今年在藍鳥3A 11/12 21:29
1034F:噓 AFTER25: 鍋貼可以下了! 11/12 21:29
1035F:→ smart1989: 買鍋貼囉 11/12 21:29
1036F:推 Raymond0710: 投手 強 舒服 11/12 21:29
1037F:推 CombatSniper: Sony xperia 這種跳水機就不要廣告了好嗎 11/12 21:30
1038F:推 AutumnLi: 今天這場我覺得最爛的就是棒次!!!!! 11/12 21:30
1039F:推 macrose: 鍋貼店老闆表示訂單激增 11/12 21:30
1040F:→ schmi: 哀 又要看到蔣屁上來守備...哪時可以不要看到它阿 11/12 21:30
1041F:推 GinHan: 打這樣不錯了啦...3HR 嗚嗚 11/12 21:30
1042F:噓 chineseb: 陳冠宇毀了這一場 11/12 21:30
1043F:噓 nick2142002: 足球又被超前了3-2 11/12 21:30
1044F:推 helba: 壘上沒人,說不定對下一棒來說是好的… 11/12 21:30
1045F:推 lereage: 足球又掉分了QQQQ 11/12 21:30
1046F:推 devilcavalry: 完蛋了 等等是林益全和...高志綱= = 11/12 21:30
1047F:→ ccfred: 這投手1A? 11/12 21:30
1048F:→ WenliYang: .................完全被蔣滅火 11/12 21:30
1049F:→ bluesophia: 酸個屁,替球員加油會死喔 11/12 21:30
1050F:→ ashin0226: 謝謝中華對 11/12 21:30
1051F:→ ivan609: 第二個好球沒攻擊太可惜 下一顆反而太急就揮空了 11/12 21:30
1052F:→ Murloc: 剛剛滿壘沒得分真的超傷 11/12 21:30
1053F:推 cloud2110: 2k 11/12 21:30
1054F:推 bbuc: 那個揮空後的笑容是不是不太妥當 11/12 21:30
1055F:推 wailman: 悶啊。郭總有習得拐氣技能嗎? 11/12 21:30
1056F:推 walk1987: 等等要買八方的還是四海的 11/12 21:30
1057F:→ straight0711: 蔣守備多掉3分 打撃少進1~2分 11/12 21:30
1058F:推 ncb125: 剩兩局了 11/12 21:30
1059F:推 chiamin116: 大師兄動作定格真可愛XDDD 11/12 21:30
1060F:推 WOWO5566: 哀 越來越不妙了 11/12 21:30
1061F:→ sprites520: 強陣XD 11/12 21:30
1062F:推 chinya0612: 最近兩個人全壘打後下一打席都三振 11/12 21:30
1063F:→ max52001: 鍋貼兩塊 阿哈哈 11/12 21:30
1064F:推 anonym48: 這投手控球就這麼準啊 在那邊酸 11/12 21:30
1065F:推 iamOsaka: 沒啥好苛責了 問題是剛剛滿壘沒追分 11/12 21:30
1066F:→ Puye: 唉 這局還好 剛剛滿壘都沒得分了 11/12 21:30
1067F:→ ARTORIA: 九點半 可以訂鍋貼了 11/12 21:30
1068F:噓 st721022: Ptt 首噓給蔣 11/12 21:30
1069F:噓 superklim: 精液的紅氣球真的很煩 11/12 21:30
1070F:→ ukalm: 下一局準備被打爆 11/12 21:30
1071F:推 AceCash: 對手換投很果決,我們換投很果凍... 11/12 21:30
1072F:推 iankevin: 不過事實就是我們投手比對面爛啊 守備也是 11/12 21:30
1073F:推 mathematics3: 等等換E全一棒擊沉 11/12 21:30
1074F:→ banbantone: 我X你娘 蔣智賢 11/12 21:30
1075F:推 isotropic: 鍋貼專賣店十點準時開張,謝謝光臨 11/12 21:30
1076F:推 chense: 中華隊拿第四名下禮拜一對大谷好了啦 直接當冠軍賽打 11/12 21:30
1077F:推 ericpitt: 大師兄很猛了啦 誰每次都打得出安打的? 11/12 21:30
1078F:推 a84885640: 宵夜時間 11/12 21:30
1079F:推 odt: 熟悉的麥香 最對味 11/12 21:30
1080F:推 itachi0609: 滿壘那次真的超傷 11/12 21:30
1081F:→ lovedesigh: 老闆說目前訂鍋貼要等到十點了 11/12 21:30
1082F:推 ceeer: 要吃鍋貼了@@ 11/12 21:30
1083F:推 beer71997199: 打擊很好,投手壓不住... 11/12 21:30
1084F:推 ddtabcd: 唯~四海遊龍嗎?我要訂鍋貼外送~ 11/12 21:30
1085F:推 d90493: 唉 那個滿壘大局沒得分太傷了 11/12 21:30
1086F:推 BURSTshock: 建議下次鍋貼店找中華隊代言 11/12 21:30
1087F:推 coolpixs: 蔣智賢你 11/12 21:30
1088F:噓 oh123oh: 還不是滿壘無人出局沒得分 蔣爛XXXXXXXXXXXXXXXXXXXXXXXX 11/12 21:30
1089F:推 MicroGG: 足球那邊3:2了..... 11/12 21:30
1090F:推 cockpupu: 差在總教練! 11/12 21:30
1091F:推 Befine: 為啥要選蔣智賢?他有很強嗎? 11/12 21:30
1092F:推 milk7054: 鍋貼油正香 11/12 21:30
1093F:→ OalexO: 今日戰犯: 陳冠宇 蔣智賢 11/12 21:30
1094F:噓 maxian30201: 超賭爛六下 啊啊啊啊啊啊啊啊啊啊 不爽啦 11/12 21:30
1095F:→ xsexyx: 你蔣到底想不想贏阿! 11/12 21:30
1096F:→ YuChEnChAnG: 為什麼覺得別人換投都比郭好 11/12 21:30
1097F:推 rover10: 隔壁被進啦 11/12 21:30
1098F:→ kara21: 幹 現在還在氣怎辦 11/12 21:30
1099F:→ OsirisWar: 還有火哥,別放棄阿各位,679要來了 11/12 21:30
1100F:噓 tallhand: 投手穩定,打擊就軟 11/12 21:30
1101F:推 upadhyaya: 陳冠宇 連幹掉中華隊兩場 11/12 21:30
1102F:→ d90493: 整天吃鍋貼 11/12 21:30
1103F:→ peter5214: 替蔣加油的確可能會死......會心死 11/12 21:30
1104F:噓 terry66: 差在總教練 完全不應變 11/12 21:30
1105F:推 shulado: 重點是分數凍結 牛棚放火打幾分都沒救 11/12 21:30
1106F:→ HiHiCano: 還在崩潰陳冠宇? 你有聽過屁屁接祖國的善液嗎? 11/12 21:30
1107F:推 bemily32: 請顧慮聖人的心情 盡量不要噓 11/12 21:30
1108F:推 LemonCheng: 看蔣屁的打擊不如看周董! 11/12 21:30
1109F:→ eizost: 這樣算 蔣還有一次上來的機會..深黑還是淺黑就看這一次了 11/12 21:30
1110F:噓 justting: 氣勢被dp拐走,生氣 11/12 21:30
1111F:→ ericpitt: 當你只剩全壘打能得分時 就曝露了打線串連的問題了 11/12 21:30
1112F:→ TaiwanJunior: 冷凍鍋貼可以拿出來退冰了........................ 11/12 21:30
1113F:→ macrose: 四海遊龍門口湧現排隊人潮 11/12 21:30
1114F:推 phsu02: 陳冠宇丟太多分了啦 幹 11/12 21:30
1115F:→ karen71014: 四海猶榮 已經在熱身了 11/12 21:30
1116F:推 dpchao775: 為什麼要選倪福德很強嗎? 11/12 21:30
1117F:→ tj474474: 王伯融那球要是接到的話現在早就平手了 慢跑融 11/12 21:30
1118F:推 san70168: ============足球都踢平了 棒球加油好嗎??????? 11/12 21:30
1119F:→ jimgene: 戰犯明明就總教練 11/12 21:30
1120F:噓 perhdball: 剛剛以為自己在黑特區要被桶了啦乾,首桶獻給獎 11/12 21:30
1121F:→ Mondesi2006: 神全先上壘 高點點 11/12 21:30
1122F:噓 snap007: 不怪蔣,只怪教練讓你上場 11/12 21:30
1123F:推 fredchan1992: 不會啊 我們鄉長也丟很好 11/12 21:30
1124F:→ Alan1597: 8可以換代打阿 11/12 21:30
1125F:推 maedchen: 今天如果輸了日本還有機會嗎? 11/12 21:30
1126F:推 Greatgenius: 我覺得真的打不到就認了 11/12 21:30
1127F:推 ilovewang: 換羅? 11/12 21:30
1128F:推 abxtpml56: 加油逆轉!!!! 11/12 21:31
1129F:推 repast: 熟悉的鍋貼味.... 11/12 21:31
1130F:推 Mirow: 為什麼中華隊每個看起來都嘻皮笑臉 ? 11/12 21:31
1131F:噓 inVINCEable: 輸了啦!!兄弟屁屁賢真是... 11/12 21:31
1132F:推 liusim: 加拿大這捕手有點猛啊 11/12 21:31
1133F:噓 fg008kimo: 都蔣啦 只是蔣p 11/12 21:31
1134F:噓 Louismax: 每次都要大師兄來止血 是中華隊只有他在打嗎 11/12 21:31
1135F:→ Puye: 對面各種換投救火 11/12 21:31
1136F:噓 antonny: 慘了蔣智賢還幾棒就要上來了....除非快換掉他吧 11/12 21:31
1137F:→ Amphetame: 這左手連六好球 11/12 21:31
1138F:→ phsu02: 陳冠宇丟太多分了啦 幹 11/12 21:31
1139F:→ Rekcahpot: 如果今天輸了 後面還有希望晉級? 11/12 21:31
1140F:推 Saza: 開始落賽 11/12 21:31
1141F:推 Destery: MLB 2.82era 現役,只能說很強 11/12 21:31
1142F:噓 bill0205: 教練很有問題 11/12 21:31
1143F:推 kew0487: 還在氣+1 11/12 21:31
1144F:→ nightmare2: 超越E全的 材,你蔣 11/12 21:31
1145F:推 auyayaya: 你前兩次都打不好 第三次還上來 就是教練團腦袋的問題 11/12 21:31
1146F:推 hosighle: 大家要相信神全會安!!!!!!待會壘上已經沒人了 11/12 21:31
1147F:→ assin: 熟悉的鍋貼 最對味 11/12 21:31
1148F:→ max52001: 本來打很好 就不太可能會一直長打 每次都有斷層 沒辦法 11/12 21:31
1149F:推 yishonlin: 真的是教練影響太大 11/12 21:31
1150F:噓 Jeff911: guitarjong 這隻爪是想引戰是嗎 11/12 21:31
1151F:噓 han050393: 中華隊輸給陳冠宇跟蔣智賢兩個 11/12 21:31
1152F:→ anonym48: 鄉民鍵盤教練來一下 看換換換能不能把整隊都換掉 11/12 21:31
1153F:→ a9564208: 別怕 國內王這局壘上沒人 11/12 21:31
1154F:推 carter31211: 換LO了 11/12 21:31
1155F:噓 edouard09: 首噓也太扯,登入門檻1000沒噓過真厲害@@ 11/12 21:31
1156F:推 waverson: 真心覺得米糕整隊來打 應該三連勝了 11/12 21:31
1157F:噓 johnwalk7: 有兄弟屁蔣扯後腿 難贏 11/12 21:31
1158F:推 ddkkz2003: 足球也丟球了... 11/12 21:31
1159F:→ HiHiCano: 還在崩潰陳冠宇? 你有聽過屁屁接祖國的善液嗎? 還是你 11/12 21:31
1160F:推 whoknows1022: 看起來是羅 11/12 21:31
1161F:噓 yisiang92: 徐乃麟國真的很塞 11/12 21:31
1162F:→ straight0711: 還給他打 非得當主坦就對了 11/12 21:31
1163F:→ k0783154: 油"冠"車失三分.... 11/12 21:31
1164F:推 julialin: 再見安打這個劇本我可以 11/12 21:31
1165F:→ Greatgenius: 跟陳冠宇沒關係吧 11/12 21:31
1166F:→ chiamin116: 開始戰精神了嗎 11/12 21:31
1167F:→ tj474474: 倪福德就是除了鄭凱文以外中職最強先發土投 有問題嗎 11/12 21:31
1168F:→ blackspace: 蔣智賢 戰犯了 黑到發金 11/12 21:31
1169F:推 loster: 換lo 11/12 21:31
1170F:噓 w223357: 熟悉的味道 11/12 21:31
1171F:→ lovedesigh: 莫忘蔣用屁屁接球 11/12 21:31
1172F:推 asonge0000: 今天的LO 是 大聯盟的LO嗎 11/12 21:31
1173F:推 jess730612: 高強度比賽得5分很不得了了 投手這層台灣太缺了 11/12 21:31
1174F:噓 SXRD: 教練團根本沒作用 打線排成這樣 換投又換超爛 11/12 21:31
1175F:噓 EatMe37: 該罵的是教練吧 那種狀況不換陽是幾時才換 11/12 21:31
1176F:→ dpchao775: 有義大犯規倪難贏 11/12 21:32
1177F:→ inVINCEable: 怪王伯融!!你是有扛全壘打逆 11/12 21:32
1178F:→ a20351: 陳冠宇:感謝蔣智賢讓我解脫 11/12 21:32
1179F:推 yanki826: 姐姐溢正沒選 可棤 11/12 21:32
1180F:推 bbuc: 今天的表現很好了啦....別苛責 11/12 21:32
1181F:推 lohateve: 中華白跟中華藍的勝率差多少? 11/12 21:32
1182F:→ SXRD: 教練是要多久時間才會把打線 排的順ㄧ點 11/12 21:32
1183F:推 tomatosoup: 拜託練一下高飛犧牲打.............................. 11/12 21:32
1184F:→ dpchao775: 感覺不出來~謝謝~小學生犯規? 11/12 21:32
1185F:噓 xsexyx: 蔣我不想再看到惹! 11/12 21:32
1186F:推 leo1208: 一樣是速球對決 11/12 21:32
1187F:推 getter5566: 千錯萬錯都是酸民錯啦,蔣智賢打超幫的耶^_^ 11/12 21:33
1188F:→ julialin: 教練團沒什麼戰策 11/12 21:33
1189F:噓 lovedesigh: 油冠車這梗根本不好笑 用不膩喔 11/12 21:33
1190F:推 hc90799: 想嚇死誰 11/12 21:33
1191F:推 kouhei: 阿打哩 11/12 21:33
1192F:→ straight0711: 好消息是古巴這屆還蠻弱的 11/12 21:33
1193F:推 ying0502: 台灣似乎不會打高飛犧牲,沒看過,不過守備我比較在意 11/12 21:34
1194F:噓 terfd: 關電視囉 11/12 21:34
1195F:推 bobo1016: 唉 11/12 21:34
1196F:推 wzch: 好遠.................................... 11/12 21:34
1197F:推 xsexyx: 老闆!外帶10個鍋貼 11/12 21:34
1198F:推 a8330028: 放火 11/12 21:35
1199F:→ ARTORIA: 屁屁接球 加今天dp 這輩子別想洗白了 11/12 21:35
1200F:推 ryrp: LO的實力就是這樣 11/12 21:35
1201F:噓 loveinmars: 不意外 11/12 21:35
1202F:→ asdfghjklasd: 1HR 11/12 21:35
1203F:→ bobo1016: 滿壘沒得分超幹 媽的 11/12 21:35
1204F:推 WGfriend: 雖敗猶榮 11/12 21:35
1205F:推 circlebear: 喔不.... 11/12 21:35
1206F:推 Sinchiest: 請問為啥可以滿壘不用得分 11/12 21:36
1207F:噓 judavida: 姓蔣在台灣都是千古罪人啦 11/12 21:36
1208F:→ stocken: 連被打兩球 11/12 21:37
1209F:推 morgan13: 蔣渭水可不是罪人 11/12 21:37
1210F:→ stocken: 改標題啦 8:5了 11/12 21:37
1211F:→ kikichou: 火球仁, 意思是說會放火的...人 11/12 21:38
1212F:→ stocken: 中華隊贏我吞煎餃 11/12 21:38
1213F:→ kikichou: 教練團超爛 11/12 21:39
1214F:→ kikichou: 教練團只會照表換人,不會看投的狀況來決定換不換 11/12 21:39
1215F:推 wangsan: 敵人就在休息室 11/12 21:39
1216F:噓 PoloHuang: 幹 11/12 21:40
1217F:推 victor327: boyo你… 11/12 21:42
1218F:推 judavida: 死屁蔣害我在爪版被水桶,現在一肚子火,幹,不會在這也 11/12 21:42
1219F:推 joya07tine24: 9比5... 11/12 21:42
1220F:→ e20288: 差超過3分,連鍋貼都沒有了 11/12 21:42
1221F:→ judavida: 要因為他被桶 11/12 21:42
1222F:推 yungwena: 妳罵髒話就會被桶 11/12 21:44
1223F:推 patrick57: 阿基師超拚 11/12 21:55
1224F:推 david3928: 吼.... 11/12 22:03